Regional Weather Roundup
Issued by NWS

Home | Current Version | Previous Version | Graphics & Text | Print | Product List | Glossary Off
Versions: 1 2 3 4 5 6 7 8 9 10 11 12 13 14 15 16 17 18 19 20 21 22 23 24 25 26 27 28 29 30 31 32 33 34 35 36 37 38 39 40 41 42 43 44 45 46 47 48 49 50

189
ASUS43 KMKX 201321
RWRWI

WISCONSIN REGIONAL WEATHER ROUNDUP
NATIONAL WEATHER SERVICE MILWAUKEE/SULLIVAN WI
800 AM CDT THU JUL 20 2017

NOTE: "FAIR" INDICATES FEW OR NO CLOUDS BELOW 12,000 FEET WITH NO
SIGNIFICANT WEATHER AND/OR OBSTRUCTIONS TO VISIBILITY.

WIZ001-002-006>008-014>016-023>028-201400-
NORTHWEST WISCONSIN

CITY           SKY/WX    TMP DP  RH WIND       PRES   REMARKS
SUPERIOR ARPT  NOT AVBL
ASHLAND        SUNNY     67  62  84 W7        29.96R
HAYWARD        CLOUDY    64  62  93 S3        30.00R
SIREN          CLOUDY    67  64  88 CALM      30.00R
CUMBERLAND     CLOUDY    63  63 100 CALM      30.01S FOG
RICE LAKE      CLOUDY    64  64  97 CALM      30.02S
CHETEK         CLOUDY    67  65  93 MISG      30.01S
LADYSMITH      CLOUDY    67  65  92 CALM      30.03S
EAU CLAIRE     CLOUDY    69  68  96 W5        30.00R FOG
MENOMONIE      FOG       69  68  99 CALM      30.01R VSB 1/2
NEW RICHMOND   FOG       66  66 100 CALM      30.01R VSB 1/4
OSCEOLA        FOG       65  65 100 CALM      30.03R VSB<1/4
$$

WIZ003>005-009-010-017-018-201400-
NORTH CENTRAL WISCONSIN

CITY           SKY/WX    TMP DP  RH WIND       PRES   REMARKS
MANITOWISH WTR SUNNY     66  64  93 W7        30.00R
ARBOR VITAE    SUNNY     67  62  84 W6        30.00R
WOODRUFF       SUNNY     67  62  84 W6        30.00R
RHINELANDER    SUNNY     68  62  81 W8        30.01R
EAGLE RIVER    SUNNY     66  62  86 W6        29.99S
LAND O LAKES   SUNNY     68  60  74 W5        30.00S
PHILLIPS       CLOUDY    67  64  87 W3        30.01R
TOMAHAWK         N/A     65  62  90 CALM      30.01S
MEDFORD        CLOUDY    67  64  89 W5        30.01S
MERRILL        PTSUNNY   68  65  92 NW3       30.01S
$$

WIZ029-030-035-036-043>047-201400-
CENTRAL WISCONSIN

CITY           SKY/WX    TMP DP  RH WIND       PRES   REMARKS
WAUSAU         MOSUNNY   71  66  84 W9        29.99S
MOSINEE        CLOUDY    70  66  88 W8        30.01S
MARSHFIELD     CLOUDY    69  66  90 W6        30.01R
STEVENS POINT  CLOUDY    67  66  99 W5        30.01S
WAUPACA        CLOUDY    74  70  86 W5        29.99S
WAUTOMA        MOSUNNY   72  68  87 SW7       29.99S
WISC RAPIDS    CLOUDY    70  68  93 W6        30.01S
CAMP DOUGLAS   PTSUNNY   70  68  94 W6        29.99F
$$

WIZ011>013-019>022-031-037>040-048>050-201400-
NORTHEAST WISCONSIN

CITY           SKY/WX    TMP DP  RH WIND       PRES   REMARKS
ANTIGO         PTSUNNY   68  64  88 W9        30.02R
SHAWANO        CLOUDY    74  67  79 W6        29.98S
OCONTO         PTSUNNY   73  67  81 W10G17    29.96R
STURGEON BAY     N/A     72  67  84 W14       29.97R
GREEN BAY      MOSUNNY   74  70  87 W13       29.97S
MANITOWOC      MOSUNNY   73  66  78 NW13      29.97S
APPLETON       PTSUNNY   72  68  88 W9        29.98S
CLINTONVILLE   CLOUDY    70  66  88 W8        29.99S
OSHKOSH        CLOUDY    70  66  87 W7        29.98R
$$

WIZ032>034-041-042-053>061-201400-
SOUTHWEST WISCONSIN

CITY           SKY/WX    TMP DP  RH WIND       PRES   REMARKS
LA CROSSE      PTSUNNY   73  69  87 S7        29.98R
SPARTA         MOSUNNY   67  66  97 CALM      30.01R
VIROQUA        PTSUNNY   67  67 100 CALM      30.01S
BOSCOBEL       CLOUDY    71  67  87 CALM      29.98F
PRAIRIE DU CHI CLOUDY    68  67  96 CALM      29.98S
PLATTEVILLE    CLOUDY    69  69 100 SE10      30.00F
$$

WIZ056-057-062-063-064-067-068-201400-
SOUTH CENTRAL WISCONSIN

CITY           SKY/WX    TMP DP  RH WIND       PRES   REMARKS
REEDSBURG      MOSUNNY   69  69 100 W3        29.99S
BARABOO/DELLS  MOSUNNY   69  67  92 CALM      29.99S
LONE ROCK      PTSUNNY   70  66  87 CALM      29.98F
MINERAL POINT  CLOUDY    70  70 100 SE9       30.01S
MADISON        CLOUDY    71  68  90 S7        29.98S
MIDDLETON      CLOUDY    71  70  96 S6        29.99F
WATERTOWN      CLOUDY    69  69 100 SW5       29.98R
MONROE         CLOUDY    68  66  94 S8        30.00F
JANESVILLE     PTSUNNY   70  70 100 S6        29.99R
$$

WIZ051-052-058>065-066-070>072-201400-
SOUTHEAST WISCONSIN

CITY           SKY/WX    TMP DP  RH WIND       PRES   REMARKS
MILWAUKEE      CLOUDY    71  66  84 S12       29.95F
WAUKESHA       MOSUNNY   66  64  94 S9        29.98F
MILWAUKEE/TIMM SUNNY     70  63  78 S7        29.95S
RACINE         CLOUDY    69  66  90 S15G23    29.97F
KENOSHA        CLOUDY    68  65  90 SE9       29.97F
FOND DU LAC    CLOUDY    71  65  81 W6        29.99R
SHEBOYGAN      CLOUDY    71  69  93 NW7       29.98R
WEST BEND      CLOUDY    70  68  94 W3        29.98R
JUNEAU         CLOUDY    69  67  92 SW3       30.00R
$$

LSZ147-162-201400-
LAKE SUPERIOR

STATION/POSITION TIME  TEMP    WIND        PRES    WAVE
                       AIR SEA DIR/SP/G            HT/PER
                 (UTC) (F)     (DEG/KT/KT) (MB)    (FT/S)
W MID LAKE BUOY  1250   50 47  270/  6/  8 1013.2R   0
DEVILS ISLAND    1300   60     240/ 12/ 14 1013.8R
PORT WING        1220   63     180/  2/ 10 1014.2
SAXON HARBOR     1230   67     190/  7/ 10 1013.9R
$$

LMZ867-665-643>646-201400-
LAKE MICHIGAN

STATION/POSITION TIME  TEMP    WIND        PRES    WAVE
                       AIR SEA DIR/SP/G            HT/PER
                 (UTC) (F)     (DEG/KT/KT) (MB)    (FT/S)
CHAMBERS ISLAND  1240   69     240/  6/ 10 1013.5S
S GREEN BAY BUOY 1300   72 71  240/ 14/ 16 1014.4
N MID LAKE BUOY  1250   66 64  230/ 12/ 14 1013.7R   1
NORTHPORT PIER   1240   70     260/  7/ 14 1013.5R
KEWAUNEE LAKESHO 1300   73     280/  7/ 12 1013.7
SHEBOYGAN LAKESH 1300   69     340/  4/  5 1014.6R
PORT WASHINGTON  1300   74      50/  2/ 22 1015.9
ATWATER BUOY     1209   70 67  200/ 16/ 19 1013.6F
MILWAUKEE LAKESH 1300   71     200/ 11/ 14   N/A
S MID LAKE BUOY  1250   68 69  210/ 19/ 21 1014.2F   2/ 4
KENOSHA   LAKESH 1300   68     170/ 12/ 17 1014.6
$$

TC  - TEMPERATURE IN CELSIUS
VSB - VISIBILITY IN STATUTE MILES
WCI - WIND CHILL INDEX
HX  - HEAT INDEX





USA.gov is the U.S. government's official web portal to all federal, state and local government web resources and services.